When you browse on this site, cookies collect data to enhance your experience and personalize the content and advertising you see.
Visit our Privacy Policy to learn more. By continuing to use the site, you agree to this use of cookies and data.
  • In Spain
  • List of Countries
  • For 7 days
  • Water Temperature
  • Weather Map
  • Weather Widgets
  • user-avatar
    Login

    Hourly Weather Sumy

    Today, 6 April, Monday

    Time Temperature Precipitation Wind Pressure Humidity
    00:00 +2°C° 0 mm 2 mps 761 mmHg 62%
    01:00 +2°C° 0 mm 2 mps 761 mmHg 64%
    02:00 +2°C° 0 mm 2 mps 761 mmHg 66%
    03:00 0°C° 0 mm 3 mps 762 mmHg 67%
    04:00 0°C° 0 mm 3 mps 762 mmHg 68%
    05:00 0°C° 0 mm 3 mps 762 mmHg 69%
    06:00 0°C° 0 mm 4 mps 763 mmHg 61%
    07:00 +1°C° 0 mm 4 mps 763 mmHg 54%
    08:00 +3°C° 0 mm 5 mps 763 mmHg 46%
    09:00 +5°C° 0 mm 5 mps 763 mmHg 41%
    10:00 +6°C° 0 mm 5 mps 764 mmHg 37%
    11:00 +7°C° 0 mm 5 mps 764 mmHg 32%
    12:00 +8°C° 0 mm 5 mps 764 mmHg 31%
    13:00 +8°C° 0 mm 5 mps 764 mmHg 31%
    14:00 +9°C° 0 mm 5 mps 764 mmHg 30%
    15:00 +9°C° 0 mm 5 mps 764 mmHg 32%
    16:00 +8°C° 0 mm 5 mps 764 mmHg 34%
    17:00 +8°C° 0 mm 4 mps 764 mmHg 36%
    18:00 +7°C° 0 mm 4 mps 764 mmHg 42%
    19:00 +7°C° 0 mm 3 mps 764 mmHg 49%
    20:00 +6°C° 0 mm 2 mps 764 mmHg 55%
    21:00 +6°C° 0 mm 2 mps 764 mmHg 58%
    22:00 +5°C° 0 mm 2 mps 764 mmHg 61%
    23:00 +5°C° 0 mm 2 mps 764 mmHg 64%

    Tomorrow, 7 April, Tuesday

    Time Temperature Precipitation Wind Pressure Humidity
    00:00 +4°C° 0 mm 2 mps 764 mmHg 67%
    01:00 +4°C° 0 mm 2 mps 764 mmHg 71%
    02:00 +4°C° 0 mm 2 mps 764 mmHg 74%
    03:00 +3°C° 0 mm 2 mps 764 mmHg 78%
    04:00 +3°C° 0 mm 2 mps 764 mmHg 83%
    05:00 +2°C° 0 mm 3 mps 764 mmHg 87%
    06:00 +3°C° 0 mm 3 mps 764 mmHg 83%
    07:00 +4°C° 0 mm 3 mps 765 mmHg 79%
    08:00 +5°C° 0 mm 3 mps 765 mmHg 75%
    09:00 +7°C° 0 mm 2 mps 765 mmHg 70%
    10:00 +8°C° 0 mm 2 mps 765 mmHg 65%
    11:00 +9°C° 0 mm 2 mps 765 mmHg 59%
    12:00 +9°C° 0 mm 2 mps 765 mmHg 56%
    13:00 +11°C° 0 mm 1 mps 765 mmHg 53%
    14:00 +12°C° 0 mm 1 mps 765 mmHg 49%
    15:00 +12°C° 0 mm 1 mps 764 mmHg 49%
    16:00 +12°C° 0 mm 1 mps 764 mmHg 49%
    17:00 +12°C° 0 mm 1 mps 764 mmHg 48%
    18:00 +11°C° 0 mm 1 mps 763 mmHg 53%
    19:00 +10°C° 0 mm 1 mps 763 mmHg 57%
    20:00 +9°C° 0 mm 1 mps 763 mmHg 62%
    21:00 +8°C° 0 mm 2 mps 763 mmHg 64%
    22:00 +7°C° 0 mm 2 mps 762 mmHg 66%
    23:00 +7°C° 0 mm 2 mps 762 mmHg 68%

    Day after tomorrow, 8 April, Wednesday

    Time Temperature Precipitation Wind Pressure Humidity
    00:00 +7°C° 0 mm 3 mps 762 mmHg 70%
    01:00 +5°C° 0 mm 3 mps 762 mmHg 72%
    02:00 +5°C° 0 mm 4 mps 761 mmHg 74%
    03:00 +5°C° 0 mm 4 mps 761 mmHg 75%
    04:00 +4°C° 0 mm 4 mps 760 mmHg 75%
    05:00 +3°C° 0 mm 5 mps 760 mmHg 76%
    06:00 +6°C° 0 mm 5 mps 759 mmHg 69%
    07:00 +7°C° 0 mm 6 mps 758 mmHg 62%
    08:00 +9°C° 0 mm 6 mps 758 mmHg 54%
    09:00 +10°C° 0 mm 7 mps 757 mmHg 49%
    10:00 +12°C° 0 mm 7 mps 757 mmHg 45%
    11:00 +15°C° 0 mm 7 mps 756 mmHg 40%
    12:00 +15°C° 0 mm 7 mps 756 mmHg 43%
    13:00 +15°C° 0 mm 7 mps 755 mmHg 45%
    14:00 +16°C° 0 mm 7 mps 755 mmHg 48%
    15:00 +15°C° 0 mm 7 mps 755 mmHg 50%
    16:00 +14°C° 0 mm 6 mps 755 mmHg 53%
    17:00 +14°C° 0 mm 6 mps 754 mmHg 55%
    18:00 +12°C° 0 mm 4 mps 755 mmHg 60%
    19:00 +11°C° 0 mm 3 mps 755 mmHg 65%
    20:00 +9°C° 0 mm 2 mps 755 mmHg 70%
    21:00 +9°C° 0 mm 2 mps 755 mmHg 73%
    22:00 +8°C° 0 mm 2 mps 755 mmHg 76%
    23:00 +7°C° 0 mm 2 mps 755 mmHg 79%

    9 April, Thursday

    Time Temperature Precipitation Wind Pressure Humidity
    00:00 +7°C° 0 mm 2 mps 755 mmHg 81%
    01:00 +6°C° 0 mm 2 mps 755 mmHg 83%
    02:00 +6°C° 0 mm 2 mps 755 mmHg 85%
    03:00 +6°C° 0 mm 1 mps 755 mmHg 85%
    04:00 +6°C° 0 mm 1 mps 755 mmHg 85%
    05:00 +6°C° 0 mm 1 mps 755 mmHg 86%
    06:00 +7°C° 0 mm 1 mps 755 mmHg 79%
    07:00 +9°C° 0 mm 1 mps 755 mmHg 72%
    08:00 +10°C° 0 mm 1 mps 755 mmHg 65%
    09:00 +11°C° 0 mm 1 mps 755 mmHg 58%
    10:00 +13°C° 0 mm 1 mps 755 mmHg 52%
    11:00 +14°C° 0 mm 2 mps 754 mmHg 46%
    12:00 +15°C° 0 mm 2 mps 754 mmHg 42%
    13:00 +16°C° 0 mm 2 mps 753 mmHg 39%
    14:00 +16°C° 0 mm 2 mps 753 mmHg 36%
    15:00 +16°C° 0 mm 2 mps 752 mmHg 36%
    16:00 +16°C° 0 mm 2 mps 752 mmHg 37%
    17:00 +16°C° 0 mm 2 mps 751 mmHg 37%
    18:00 +15°C° 0 mm 2 mps 751 mmHg 41%
    19:00 +14°C° 0 mm 2 mps 751 mmHg 45%
    20:00 +12°C° 0 mm 2 mps 751 mmHg 49%
    21:00 +12°C° 0 mm 2 mps 751 mmHg 51%
    22:00 +10°C° 0 mm 2 mps 750 mmHg 53%
    23:00 +10°C° 0 mm 3 mps 750 mmHg 55%

    10 April, Friday

    Time Temperature Precipitation Wind Pressure Humidity
    00:00 +10°C° 0 mm 3 mps 749 mmHg 57%
    01:00 +9°C° 0 mm 3 mps 749 mmHg 58%
    02:00 +9°C° 0 mm 3 mps 748 mmHg 60%
    03:00 +8°C° 0 mm 4 mps 748 mmHg 59%
    04:00 +8°C° 0 mm 4 mps 748 mmHg 58%
    05:00 +8°C° 0 mm 4 mps 747 mmHg 57%
    06:00 +10°C° 0 mm 4 mps 747 mmHg 57%
    07:00 +11°C° 0 mm 4 mps 747 mmHg 56%
    08:00 +12°C° 0 mm 4 mps 747 mmHg 55%
    09:00 +13°C° 0 mm 5 mps 747 mmHg 53%
    10:00 +14°C° 0 mm 5 mps 747 mmHg 51%
    11:00 +16°C° 0 mm 6 mps 746 mmHg 49%
    12:00 +16°C° 0.1 mm 6 mps 746 mmHg 49%
    13:00 +15°C° 0.1 mm 6 mps 746 mmHg 49%
    14:00 +15°C° 0.1 mm 6 mps 746 mmHg 49%
    15:00 +14°C° 0 mm 6 mps 746 mmHg 48%
    16:00 +14°C° 0 mm 6 mps 746 mmHg 47%
    17:00 +13°C° 0 mm 6 mps 746 mmHg 46%
    18:00 +12°C° 0 mm 5 mps 747 mmHg 51%
    19:00 +9°C° 0 mm 5 mps 747 mmHg 56%
    20:00 +8°C° 0 mm 4 mps 748 mmHg 61%
    21:00 +7°C° 0 mm 4 mps 748 mmHg 61%
    22:00 +7°C° 0 mm 3 mps 748 mmHg 61%
    23:00 +7°C° 0 mm 3 mps 749 mmHg 61%

    11 April, Saturday

    Time Temperature Precipitation Wind Pressure Humidity
    00:00 +5°C° 0 mm 3 mps 749 mmHg 63%
    01:00 +4°C° 0 mm 3 mps 749 mmHg 64%
    02:00 +4°C° 0 mm 3 mps 749 mmHg 66%
    03:00 +4°C° 0 mm 3 mps 749 mmHg 68%
    04:00 +3°C° 0 mm 3 mps 750 mmHg 71%
    05:00 +3°C° 0 mm 3 mps 750 mmHg 73%
    06:00 +4°C° 0 mm 3 mps 750 mmHg 69%
    07:00 +5°C° 0 mm 3 mps 750 mmHg 64%
    08:00 +6°C° 0 mm 4 mps 750 mmHg 60%
    09:00 +7°C° 0 mm 4 mps 750 mmHg 54%
    10:00 +8°C° 0 mm 4 mps 750 mmHg 48%
    11:00 +10°C° 0 mm 4 mps 751 mmHg 42%
    12:00 +10°C° 0 mm 4 mps 751 mmHg 40%
    13:00 +11°C° 0 mm 4 mps 751 mmHg 37%
    14:00 +11°C° 0 mm 4 mps 751 mmHg 34%
    15:00 +11°C° 0 mm 4 mps 750 mmHg 35%
    16:00 +10°C° 0 mm 4 mps 750 mmHg 36%
    17:00 +10°C° 0 mm 4 mps 750 mmHg 37%
    18:00 +9°C° 0 mm 3 mps 750 mmHg 40%
    19:00 +9°C° 0 mm 1 mps 750 mmHg 44%
    20:00 +7°C° 0 mm 0 mps 751 mmHg 48%
    21:00 +8°C° 0 mm 1 mps 750 mmHg 49%
    22:00 +7°C° 0 mm 1 mps 750 mmHg 49%
    23:00 +7°C° 0 mm 1 mps 750 mmHg 50%
    Show more